Time,TemperatureF,DewpointF,PressureIn,WindDirection,WindDirectionDegrees,WindSpeedMPH,WindSpeedGustMPH,Humidity,HourlyPrecipIn,Conditions,Clouds,dailyrainin,SolarRadiationWatts/m^2,SoftwareType,DateUTC
2013-02-21 00:01:00,72.4,67.0,30.07,East,97,9.0,-999.0,82,-99.99,,,0.00,0,weatherlink.com 1.10,2013-02-21 05:01:00,
2013-02-21 00:16:00,72.1,66.0,30.07,ESE,103,9.0,-999.0,82,-99.99,,,0.00,0,weatherlink.com 1.10,2013-02-21 05:16:00,
2013-02-21 00:31:00,71.8,66.0,30.06,ESE,108,9.0,-999.0,82,-99.99,,,0.00,0,weatherlink.com 1.10,2013-02-21 05:31:00,
2013-02-21 00:46:00,71.9,67.0,30.06,ESE,119,7.0,-999.0,83,-99.99,,,0.00,0,weatherlink.com 1.10,2013-02-21 05:46:00,
2013-02-21 01:01:00,71.7,67.0,30.05,ESE,114,7.0,-999.0,84,-99.99,,,0.00,0,weatherlink.com 1.10,2013-02-21 06:01:00,
2013-02-21 01:16:00,71.7,67.0,30.05,ESE,111,5.0,-999.0,84,-99.99,,,0.00,0,weatherlink.com 1.10,2013-02-21 06:16:00,
2013-02-21 01:31:00,71.6,67.0,30.05,ESE,105,12.0,-999.0,84,-99.99,,,0.00,0,weatherlink.com 1.10,2013-02-21 06:31:00,
2013-02-21 01:46:00,71.8,67.0,30.04,East,99,7.0,-999.0,85,-99.99,,,0.00,0,weatherlink.com 1.10,2013-02-21 06:46:00,
2013-02-21 02:01:00,72.0,67.0,30.03,ESE,109,7.0,-999.0,85,-99.99,,,0.00,0,weatherlink.com 1.10,2013-02-21 07:01:00,
2013-02-21 02:16:00,71.9,68.0,30.03,SE,134,11.0,-999.0,86,-99.99,,,0.00,0,weatherlink.com 1.10,2013-02-21 07:16:00,
2013-02-21 02:31:00,71.7,67.0,30.03,ESE,115,7.0,-999.0,86,-99.99,,,0.00,0,weatherlink.com 1.10,2013-02-21 07:31:00,
2013-02-21 02:46:00,71.7,68.0,30.02,SE,138,11.0,-999.0,87,-99.99,,,0.00,0,weatherlink.com 1.10,2013-02-21 07:46:00,
2013-02-21 03:01:00,71.7,68.0,30.01,ESE,105,7.0,-999.0,87,-99.99,,,0.00,0,weatherlink.com 1.10,2013-02-21 08:01:00,
2013-02-21 03:16:00,71.6,68.0,30.01,SSE,150,3.0,-999.0,87,-99.99,,,0.00,0,weatherlink.com 1.10,2013-02-21 08:16:00,
2013-02-21 03:31:00,71.5,68.0,30.01,SE,136,11.0,-999.0,87,-99.99,,,0.00,0,weatherlink.com 1.10,2013-02-21 08:31:00,
2013-02-21 03:46:00,71.5,68.0,30.00,SE,140,8.0,-999.0,87,-99.99,,,0.00,0,weatherlink.com 1.10,2013-02-21 08:46:00,
2013-02-21 04:01:00,71.4,67.0,30.01,ESE,123,10.0,-999.0,86,-99.99,,,0.00,0,weatherlink.com 1.10,2013-02-21 09:01:00,
2013-02-21 04:16:00,71.5,67.0,30.01,SE,128,6.0,-999.0,86,-99.99,,,0.00,0,weatherlink.com 1.10,2013-02-21 09:16:00,
2013-02-21 04:31:00,71.5,67.0,30.01,SE,146,6.0,-999.0,86,-99.99,,,0.00,0,weatherlink.com 1.10,2013-02-21 09:31:00,
2013-02-21 04:46:00,71.4,67.0,30.02,SE,126,8.0,-999.0,86,-99.99,,,0.00,0,weatherlink.com 1.10,2013-02-21 09:46:00,
2013-02-21 05:01:00,71.3,67.0,30.02,ESE,107,8.0,-999.0,86,-99.99,,,0.00,0,weatherlink.com 1.10,2013-02-21 10:01:00,
2013-02-21 05:16:00,71.3,67.0,30.03,ESE,103,8.0,-999.0,86,-99.99,,,0.00,0,weatherlink.com 1.10,2013-02-21 10:16:00,
2013-02-21 05:31:00,71.2,67.0,30.03,SE,128,7.0,-999.0,86,-99.99,,,0.00,0,weatherlink.com 1.10,2013-02-21 10:31:00,
2013-02-21 05:46:00,71.3,67.0,30.03,SE,140,11.0,-999.0,86,-99.99,,,0.00,0,weatherlink.com 1.10,2013-02-21 10:46:00,
2013-02-21 06:01:00,71.3,67.0,30.04,East,101,6.0,-999.0,86,-99.99,,,0.00,0,weatherlink.com 1.10,2013-02-21 11:01:00,
2013-02-21 06:16:00,71.3,67.0,30.04,ESE,111,4.0,-999.0,86,-99.99,,,0.00,0,weatherlink.com 1.10,2013-02-21 11:16:00,
2013-02-21 06:31:00,71.5,67.0,30.05,ESE,114,6.0,-999.0,86,-99.99,,,0.00,0,weatherlink.com 1.10,2013-02-21 11:31:00,
2013-02-21 06:46:00,71.8,68.0,30.05,ESE,106,7.0,-999.0,86,-99.99,,,0.00,0,weatherlink.com 1.10,2013-02-21 11:46:00,
2013-02-21 07:01:00,71.8,68.0,30.06,ESE,111,6.0,-999.0,86,-99.99,,,0.00,9,weatherlink.com 1.10,2013-02-21 12:01:00,
2013-02-21 07:16:00,72.0,68.0,30.06,ESE,115,6.0,-999.0,86,-99.99,,,0.00,30,weatherlink.com 1.10,2013-02-21 12:16:00,
2013-02-21 07:31:00,72.0,67.0,30.06,ESE,103,9.0,-999.0,85,-99.99,,,0.00,28,weatherlink.com 1.10,2013-02-21 12:31:00,
2013-02-21 07:46:00,72.4,68.0,30.07,East,99,4.0,-999.0,85,-99.99,,,0.00,47,weatherlink.com 1.10,2013-02-21 12:46:00,
2013-02-21 08:01:00,72.8,68.0,30.07,ESE,108,6.0,-999.0,86,-99.99,,,0.00,155,weatherlink.com 1.10,2013-02-21 13:01:00,
2013-02-21 08:16:00,74.1,70.0,30.07,ESE,119,7.0,-999.0,86,-99.99,,,0.00,396,weatherlink.com 1.10,2013-02-21 13:16:00,
2013-02-21 08:31:00,75.1,70.0,30.09,ESE,105,8.0,-999.0,85,-99.99,,,0.00,387,weatherlink.com 1.10,2013-02-21 13:31:00,
2013-02-21 08:46:00,75.3,70.0,30.09,ESE,116,5.0,-999.0,83,-99.99,,,0.00,163,weatherlink.com 1.10,2013-02-21 13:46:00,
2013-02-21 09:01:00,76.9,71.0,30.09,ESE,118,9.0,-999.0,82,-99.99,,,0.00,526,weatherlink.com 1.10,2013-02-21 14:01:00,
2013-02-21 09:16:00,78.1,72.0,30.09,ESE,118,7.0,-999.0,80,-99.99,,,0.00,418,weatherlink.com 1.10,2013-02-21 14:16:00,
2013-02-21 09:31:00,78.5,71.0,30.09,SE,136,8.0,-999.0,77,-99.99,,,0.00,343,weatherlink.com 1.10,2013-02-21 14:31:00,
2013-02-21 09:46:00,79.4,71.0,30.09,SE,134,9.0,-999.0,76,-99.99,,,0.00,204,weatherlink.com 1.10,2013-02-21 14:46:00,
2013-02-21 10:01:00,80.3,72.0,30.10,SE,137,9.0,-999.0,75,-99.99,,,0.00,707,weatherlink.com 1.10,2013-02-21 15:01:00,
2013-02-21 10:16:00,81.9,72.0,30.10,ESE,104,6.0,-999.0,73,-99.99,,,0.00,752,weatherlink.com 1.10,2013-02-21 15:16:00,
2013-02-21 10:31:00,82.8,73.0,30.10,ESE,102,7.0,-999.0,72,-99.99,,,0.00,784,weatherlink.com 1.10,2013-02-21 15:31:00,
2013-02-21 10:46:00,83.0,73.0,30.11,ESE,115,7.0,-999.0,71,-99.99,,,0.00,916,weatherlink.com 1.10,2013-02-21 15:46:00,
2013-02-21 11:01:00,83.6,73.0,30.10,ESE,107,7.0,-999.0,70,-99.99,,,0.00,580,weatherlink.com 1.10,2013-02-21 16:01:00,
2013-02-21 11:16:00,84.0,72.0,30.10,SE,131,7.0,-999.0,68,-99.99,,,0.00,888,weatherlink.com 1.10,2013-02-21 16:16:00,
2013-02-21 11:31:00,84.5,73.0,30.10,ESE,104,8.0,-999.0,68,-99.99,,,0.00,856,weatherlink.com 1.10,2013-02-21 16:31:00,
2013-02-21 11:46:00,84.7,72.0,30.10,ESE,105,6.0,-999.0,65,-99.99,,,0.00,749,weatherlink.com 1.10,2013-02-21 16:46:00,
2013-02-21 12:01:00,85.2,73.0,30.09,ESE,104,1.0,-999.0,66,-99.99,,,0.00,870,weatherlink.com 1.10,2013-02-21 17:01:00,
2013-02-21 12:16:00,85.6,73.0,30.09,East,95,8.0,-999.0,65,-99.99,,,0.00,858,weatherlink.com 1.10,2013-02-21 17:16:00,
2013-02-21 12:31:00,85.8,72.0,30.08,ESE,113,4.0,-999.0,63,-99.99,,,0.00,626,weatherlink.com 1.10,2013-02-21 17:31:00,
2013-02-21 12:46:00,85.9,73.0,30.07,ESE,105,6.0,-999.0,65,-99.99,,,0.00,925,weatherlink.com 1.10,2013-02-21 17:46:00,
2013-02-21 13:01:00,85.5,72.0,30.07,ESE,120,7.0,-999.0,65,-99.99,,,0.00,849,weatherlink.com 1.10,2013-02-21 18:01:00,
2013-02-21 13:16:00,86.1,74.0,30.07,SE,142,7.0,-999.0,67,-99.99,,,0.00,918,weatherlink.com 1.10,2013-02-21 18:16:00,
2013-02-21 13:31:00,86.1,73.0,30.06,SE,136,4.0,-999.0,66,-99.99,,,0.00,768,weatherlink.com 1.10,2013-02-21 18:31:00,
2013-02-21 13:46:00,85.6,73.0,30.05,SE,137,11.0,-999.0,66,-99.99,,,0.00,863,weatherlink.com 1.10,2013-02-21 18:46:00,
2013-02-21 14:01:00,84.5,73.0,30.05,ESE,113,8.0,-999.0,68,-99.99,,,0.00,645,weatherlink.com 1.10,2013-02-21 19:01:00,
2013-02-21 14:16:00,83.7,73.0,30.05,SE,138,2.0,-999.0,69,-99.99,,,0.00,947,weatherlink.com 1.10,2013-02-21 19:16:00,
2013-02-21 14:31:00,83.0,71.0,30.05,SE,144,7.0,-999.0,67,-99.99,,,0.00,232,weatherlink.com 1.10,2013-02-21 19:31:00,
2013-02-21 14:46:00,83.1,73.0,30.04,ESE,120,6.0,-999.0,71,-99.99,,,0.00,735,weatherlink.com 1.10,2013-02-21 19:46:00,
2013-02-21 15:01:00,83.7,73.0,30.04,East,95,4.0,-999.0,69,-99.99,,,0.00,710,weatherlink.com 1.10,2013-02-21 20:01:00,
2013-02-21 15:16:00,83.9,72.0,30.04,SSE,159,6.0,-999.0,68,-99.99,,,0.00,617,weatherlink.com 1.10,2013-02-21 20:16:00,
2013-02-21 15:31:00,83.7,73.0,30.03,SE,132,7.0,-999.0,69,-99.99,,,0.00,557,weatherlink.com 1.10,2013-02-21 20:31:00,
2013-02-21 15:46:00,83.1,72.0,30.03,East,81,10.0,-999.0,69,-99.99,,,0.00,497,weatherlink.com 1.10,2013-02-21 20:46:00,
2013-02-21 16:01:00,82.3,72.0,30.03,ESE,119,11.0,-999.0,70,-99.99,,,0.00,443,weatherlink.com 1.10,2013-02-21 21:01:00,
2013-02-21 16:16:00,81.5,71.0,30.03,ESE,107,9.0,-999.0,71,-99.99,,,0.00,390,weatherlink.com 1.10,2013-02-21 21:16:00,
2013-02-21 16:46:00,80.4,71.0,30.04,ESE,113,9.0,-999.0,73,-99.99,,,0.00,276,weatherlink.com 1.10,2013-02-21 21:46:00,
2013-02-21 17:01:00,79.5,71.0,30.04,ESE,115,11.0,-999.0,74,-99.99,,,0.00,223,weatherlink.com 1.10,2013-02-21 22:01:00,
2013-02-21 17:16:00,78.7,70.0,30.04,SE,126,14.0,-999.0,74,-99.99,,,0.00,169,weatherlink.com 1.10,2013-02-21 22:16:00,
2013-02-21 17:31:00,78.1,70.0,30.04,ESE,106,7.0,-999.0,75,-99.99,,,0.00,97,weatherlink.com 1.10,2013-02-21 22:31:00,
2013-02-21 17:46:00,77.4,69.0,30.04,SE,132,12.0,-999.0,75,-99.99,,,0.00,51,weatherlink.com 1.10,2013-02-21 22:46:00,
2013-02-21 18:01:00,76.7,69.0,30.04,SE,131,9.0,-999.0,76,-99.99,,,0.00,18,weatherlink.com 1.10,2013-02-21 23:01:00,
2013-02-21 18:16:00,76.0,68.0,30.04,SE,132,13.0,-999.0,77,-99.99,,,0.00,5,weatherlink.com 1.10,2013-02-21 23:16:00,
2013-02-21 18:31:00,75.5,68.0,30.04,ENE,77,8.0,-999.0,78,-99.99,,,0.00,0,weatherlink.com 1.10,2013-02-21 23:31:00,
2013-02-21 18:46:00,75.3,68.0,30.04,SE,136,11.0,-999.0,79,-99.99,,,0.00,0,weatherlink.com 1.10,2013-02-21 23:46:00,
2013-02-21 19:01:00,74.8,68.0,30.04,SE,132,12.0,-999.0,80,-99.99,,,0.00,0,weatherlink.com 1.10,2013-02-22 00:01:00,
2013-02-21 19:16:00,74.7,69.0,30.04,SE,132,10.0,-999.0,81,-99.99,,,0.00,0,weatherlink.com 1.10,2013-02-22 00:16:00,
2013-02-21 19:31:00,74.6,69.0,30.04,ESE,105,14.0,-999.0,82,-99.99,,,0.00,0,weatherlink.com 1.10,2013-02-22 00:31:00,
2013-02-21 19:46:00,74.3,69.0,30.05,SE,140,14.0,-999.0,83,-99.99,,,0.00,0,weatherlink.com 1.10,2013-02-22 00:46:00,
2013-02-21 20:01:00,74.2,69.0,30.05,SSE,168,10.0,-999.0,84,-99.99,,,0.00,0,weatherlink.com 1.10,2013-02-22 01:01:00,
2013-02-21 20:16:00,74.1,69.0,30.05,SE,128,12.0,-999.0,85,-99.99,,,0.00,0,weatherlink.com 1.10,2013-02-22 01:16:00,
2013-02-21 20:31:00,73.8,69.0,30.05,SE,131,11.0,-999.0,85,-99.99,,,0.00,0,weatherlink.com 1.10,2013-02-22 01:31:00,
2013-02-21 20:46:00,74.0,70.0,30.05,ESE,113,10.0,-999.0,86,-99.99,,,0.00,0,weatherlink.com 1.10,2013-02-22 01:46:00,
2013-02-21 21:01:00,73.7,69.0,30.06,ESE,115,7.0,-999.0,85,-99.99,,,0.00,0,weatherlink.com 1.10,2013-02-22 02:01:00,
2013-02-21 21:16:00,73.3,68.0,30.06,East,99,9.0,-999.0,84,-99.99,,,0.00,0,weatherlink.com 1.10,2013-02-22 02:16:00,
2013-02-21 21:31:00,73.8,69.0,30.06,ESE,117,11.0,-999.0,84,-99.99,,,0.00,0,weatherlink.com 1.10,2013-02-22 02:31:00,
2013-02-21 21:46:00,73.7,69.0,30.07,East,95,11.0,-999.0,84,-99.99,,,0.00,0,weatherlink.com 1.10,2013-02-22 02:46:00,
2013-02-21 22:01:00,73.7,68.0,30.07,ESE,115,12.0,-999.0,83,-99.99,,,0.00,0,weatherlink.com 1.10,2013-02-22 03:01:00,
2013-02-21 22:16:00,73.7,69.0,30.07,ESE,114,9.0,-999.0,84,-99.99,,,0.00,0,weatherlink.com 1.10,2013-02-22 03:16:00,
2013-02-21 22:31:00,73.8,69.0,30.06,East,101,9.0,-999.0,85,-99.99,,,0.00,0,weatherlink.com 1.10,2013-02-22 03:31:00,
2013-02-21 22:46:00,73.6,69.0,30.06,East,96,10.0,-999.0,85,-99.99,,,0.00,0,weatherlink.com 1.10,2013-02-22 03:46:00,
2013-02-21 23:01:00,73.4,69.0,30.06,East,95,11.0,-999.0,85,-99.99,,,0.00,0,weatherlink.com 1.10,2013-02-22 04:01:00,
2013-02-21 23:16:00,73.7,69.0,30.06,ESE,111,16.0,-999.0,85,-99.99,,,0.00,0,weatherlink.com 1.10,2013-02-22 04:16:00,
2013-02-21 23:31:00,73.6,69.0,30.06,SE,127,11.0,-999.0,85,-99.99,,,0.00,0,weatherlink.com 1.10,2013-02-22 04:31:00,
2013-02-21 23:46:00,73.4,69.0,30.06,ENE,76,10.0,-999.0,85,-99.99,,,0.00,0,weatherlink.com 1.10,2013-02-22 04:46:00,